| time (UTC) | temp F | wind direction | speed MPH | gust MPH | rain 1hr in | rain 24hr in | rain mn in | humidity % | barometer mb |
| 20260510104555 | 68 | 220 | 3.0 | 6.0 | 0.00 | 0.02 | 0.00 | 75 | 985.8 |
| 20260510103054 | 68 | 227 | 2.0 | 4.0 | 0.00 | 0.02 | 0.00 | 76 | 985.8 |
| 20260510101535 | 68 | 240 | 3.0 | 5.0 | 0.00 | 0.02 | 0.00 | 76 | 985.7 |
| 20260510100054 | 68 | 221 | 4.0 | 6.0 | 0.00 | 0.02 | 0.00 | 76 | 985.5 |
| 20260510094517 | 68 | 211 | 2.0 | 9.0 | 0.00 | 0.02 | 0.00 | 75 | 985.5 |
| 20260510093017 | 68 | 223 | 4.0 | 9.0 | 0.00 | 0.02 | 0.00 | 76 | 985.1 |
| 20260510091614 | 68 | 220 | 3.0 | 8.0 | 0.00 | 0.02 | 0.00 | 76 | 985.0 |
| 20260510084611 | 68 | 237 | 5.0 | 10.0 | 0.00 | 0.02 | 0.00 | 76 | 985.1 |
| 20260510083035 | 68 | 221 | 3.0 | 8.0 | 0.00 | 0.02 | 0.00 | 77 | 985.1 |
| 20260510081547 | 68 | 221 | 3.0 | 6.0 | 0.00 | 0.02 | 0.00 | 77 | 985.3 |
| 20260510080025 | 68 | 198 | 1.0 | 5.0 | 0.00 | 0.02 | 0.00 | 79 | 985.6 |
| 20260510074514 | 69 | 230 | 2.0 | 5.0 | 0.00 | 0.02 | 0.00 | 79 | 985.6 |
| 20260510073104 | 69 | 208 | 0.0 | 4.0 | 0.00 | 0.02 | 0.00 | 80 | 985.7 |
| 20260510071556 | 69 | 219 | 3.0 | 5.0 | 0.00 | 0.02 | 0.00 | 80 | 985.6 |
| 20260510070044 | 69 | 205 | 2.0 | 8.0 | 0.00 | 0.02 | 0.00 | 80 | 985.6 |
| 20260510064537 | 69 | 180 | 3.0 | 7.0 | 0.00 | 0.02 | 0.00 | 81 | 985.8 |
| 20260510063018 | 69 | 197 | 1.0 | 4.0 | 0.00 | 0.02 | 0.00 | 80 | 985.5 |
| 20260510061516 | 69 | 198 | 1.0 | 5.0 | 0.00 | 0.02 | 0.00 | 80 | 985.6 |
| 20260510060058 | 69 | 208 | 2.0 | 6.0 | 0.00 | 0.02 | 0.00 | 79 | 985.6 |
| 20260510054556 | 70 | 163 | 0.0 | 0.0 | 0.00 | 0.02 | 0.00 | 78 | 985.4 |
| 20260510053039 | 70 | 158 | 0.0 | 0.0 | 0.00 | 0.02 | 0.00 | 77 | 985.3 |
| 20260510051542 | 70 | 156 | 0.0 | 0.0 | 0.00 | 0.02 | 0.00 | 76 | 985.3 |
| 20260510050019 | 70 | 155 | 0.0 | 1.0 | 0.00 | 0.02 | 0.00 | 77 | 985.3 |
| 20260510044528 | 71 | 153 | 0.0 | 0.0 | 0.00 | 0.02 | 0.00 | 78 | 985.5 |
| 20260510043110 | 71 | 153 | 0.0 | 0.0 | 0.00 | 0.02 | 0.00 | 78 | 985.6 |
| 20260510041555 | 72 | 153 | 0.0 | 0.0 | 0.00 | 0.02 | 0.00 | 78 | 985.6 |
| 20260510040037 | 72 | 153 | 0.0 | 0.0 | 0.00 | 0.02 | 0.00 | 78 | 985.5 |
| 20260510034542 | 73 | 152 | 0.0 | 0.0 | 0.00 | 0.02 | 0.00 | 79 | 985.3 |
| 20260510033015 | 73 | 152 | 0.0 | 0.0 | 0.00 | 0.02 | 0.00 | 80 | 985.2 |
| 20260510031513 | 73 | 152 | 0.0 | 0.0 | 0.00 | 0.02 | 0.00 | 80 | 985.0 |
| 20260510030100 | 74 | 151 | 0.0 | 0.0 | 0.00 | 0.02 | 0.00 | 80 | 984.9 |
| 20260510024552 | 74 | 151 | 0.0 | 0.0 | 0.00 | 0.02 | 0.00 | 81 | 984.8 |
| 20260510023033 | 75 | 150 | 0.0 | 0.0 | 0.00 | 0.02 | 0.00 | 81 | 984.4 |
| 20260510021527 | 76 | 151 | 0.0 | 2.0 | 0.00 | 0.02 | 0.00 | 81 | 984.2 |
| 20260510020006 | 77 | 150 | 0.0 | 0.0 | 0.00 | 0.02 | 0.00 | 81 | 983.9 |
| 20260510014505 | 78 | 150 | 0.0 | 0.0 | 0.00 | 0.02 | 0.00 | 81 | 983.6 |
| 20260510013043 | 78 | 150 | 0.0 | 0.0 | 0.00 | 0.02 | 0.00 | 81 | 983.6 |
| 20260510011543 | 79 | 150 | 0.0 | 0.0 | 0.00 | 0.02 | 0.00 | 80 | 983.4 |
| 20260510010019 | 81 | 150 | 0.0 | 0.0 | 0.00 | 0.02 | 0.00 | 79 | 983.4 |
| 20260510004514 | 82 | 150 | 0.0 | 0.0 | 0.00 | 0.02 | 0.00 | 76 | 983.3 |
| 20260510003054 | 83 | 150 | 0.0 | 0.0 | 0.00 | 0.02 | 0.00 | 74 | 983.2 |
| 20260510001550 | 84 | 150 | 0.0 | 0.0 | 0.00 | 0.02 | 0.00 | 72 | 983.1 |
| 20260510000054 | 85 | 151 | 0.0 | 0.0 | 0.00 | 0.02 | 0.00 | 70 | 983.0 |
| 20260509234544 | 85 | 153 | 0.0 | 0.0 | 0.00 | 0.02 | 0.00 | 69 | 982.9 |
| 20260509233012 | 86 | 155 | 0.0 | 0.0 | 0.00 | 0.02 | 0.00 | 65 | 982.8 |
| 20260509231507 | 86 | 149 | 0.0 | 0.0 | 0.00 | 0.02 | 0.00 | 67 | 982.7 |
| 20260509230045 | 86 | 150 | 0.0 | 0.0 | 0.00 | 0.02 | 0.00 | 66 | 982.8 |
| 20260509224544 | 87 | 131 | 0.0 | 0.0 | 0.00 | 0.02 | 0.02 | 62 | 982.8 |
| 20260509223027 | 87 | 131 | 0.0 | 0.0 | 0.00 | 0.02 | 0.02 | 63 | 982.7 |
| 20260509221527 | 87 | 173 | 0.0 | 0.0 | 0.00 | 0.02 | 0.02 | 64 | 982.7 |
| 20260509220007 | 86 | 109 | 0.0 | 0.0 | 0.00 | 0.02 | 0.02 | 61 | 982.7 |
| 20260509214506 | 86 | 114 | 0.0 | 4.0 | 0.00 | 0.02 | 0.02 | 63 | 982.8 |
| 20260509213046 | 86 | 154 | 1.0 | 5.0 | 0.00 | 0.02 | 0.02 | 64 | 983.1 |
| 20260509211545 | 86 | 153 | 3.0 | 8.0 | 0.00 | 0.02 | 0.02 | 64 | 983.2 |
| 20260509210031 | 86 | 114 | 0.0 | 3.0 | 0.00 | 0.02 | 0.02 | 62 | 983.5 |
| 20260509204526 | 86 | 144 | 2.0 | 5.0 | 0.00 | 0.02 | 0.02 | 64 | 983.8 |
| 20260509203004 | 85 | 161 | 1.0 | 5.0 | 0.00 | 0.02 | 0.02 | 65 | 983.9 |
| 20260509201503 | 85 | 79 | 0.0 | 6.0 | 0.00 | 0.02 | 0.02 | 66 | 984.1 |
| 20260509194544 | 84 | 49 | 3.0 | 9.0 | 0.00 | 0.02 | 0.02 | 68 | 984.5 |
| 20260509193027 | 84 | 65 | 0.0 | 6.0 | 0.00 | 0.02 | 0.02 | 71 | 984.6 |
| 20260509191526 | 83 | 56 | 2.0 | 7.0 | 0.00 | 0.02 | 0.02 | 73 | 984.7 |
| 20260509190006 | 83 | 62 | 4.0 | 7.0 | 0.00 | 0.02 | 0.02 | 72 | 985.0 |
| 20260509184502 | 83 | 51 | 0.0 | 7.0 | 0.00 | 0.02 | 0.02 | 74 | 985.1 |
| 20260509183047 | 82 | 52 | 0.0 | 6.0 | 0.00 | 0.02 | 0.02 | 77 | 985.3 |
| 20260509181550 | 81 | 74 | 1.0 | 4.0 | 0.00 | 0.02 | 0.02 | 76 | 985.4 |
| 20260509180044 | 82 | 133 | 0.0 | 3.0 | 0.00 | 0.02 | 0.02 | 77 | 985.6 |
| 20260509174541 | 81 | 76 | 3.0 | 8.0 | 0.00 | 0.02 | 0.02 | 79 | 985.6 |
| 20260509173039 | 80 | 25 | 5.0 | 10.0 | 0.00 | 0.02 | 0.02 | 80 | 985.8 |
| 20260509171536 | 78 | 25 | 4.0 | 10.0 | 0.00 | 0.02 | 0.02 | 81 | 985.9 |
| 20260509170039 | 77 | 55 | 7.0 | 11.0 | 0.00 | 0.02 | 0.02 | 80 | 986.0 |
| 20260509164536 | 77 | 45 | 9.0 | 12.0 | 0.00 | 0.02 | 0.02 | 81 | 986.2 |
| 20260509163035 | 78 | 131 | 0.0 | 6.0 | 0.00 | 0.02 | 0.02 | 80 | 986.2 |
| 20260509161534 | 78 | 197 | 3.0 | 7.0 | 0.00 | 0.02 | 0.02 | 78 | 986.2 |
| 20260509160036 | 77 | 170 | 5.0 | 9.0 | 0.00 | 0.02 | 0.02 | 76 | 986.0 |
| 20260509154530 | 77 | 163 | 4.0 | 9.0 | 0.00 | 0.02 | 0.02 | 76 | 986.0 |
| 20260509153040 | 77 | 127 | 3.0 | 7.0 | 0.00 | 0.02 | 0.02 | 74 | 985.8 |
| 20260509151528 | 77 | 150 | 0.0 | 3.0 | 0.00 | 0.02 | 0.02 | 66 | 985.6 |
| 20260509150006 | 76 | 151 | 0.0 | 1.0 | 0.00 | 0.02 | 0.02 | 63 | 985.6 |
| 20260509144521 | 75 | 52 | 2.0 | 8.0 | 0.00 | 0.02 | 0.02 | 63 | 985.7 |
| 20260509143108 | 74 | 236 | 8.0 | 14.0 | 0.00 | 0.02 | 0.02 | 64 | 984.5 |
| 20260509141547 | 73 | 209 | 4.0 | 9.0 | 0.00 | 0.02 | 0.02 | 65 | 984.4 |
| 20260509140028 | 73 | 216 | 3.0 | 9.0 | 0.00 | 0.02 | 0.02 | 65 | 984.5 |
| 20260509134545 | 72 | 214 | 4.0 | 8.0 | 0.00 | 0.02 | 0.02 | 65 | 984.8 |
| 20260509133017 | 72 | 219 | 4.0 | 7.0 | 0.00 | 0.02 | 0.02 | 65 | 984.7 |
| 20260509131513 | 71 | 182 | 2.0 | 7.0 | 0.00 | 0.02 | 0.02 | 65 | 984.5 |
| 20260509130058 | 71 | 199 | 4.0 | 6.0 | 0.00 | 0.02 | 0.02 | 66 | 984.3 |
| 20260509124551 | 71 | 39 | 0.0 | 6.0 | 0.00 | 0.02 | 0.02 | 66 | 984.6 |
| 20260509123034 | 71 | 248 | 5.0 | 10.0 | 0.00 | 0.02 | 0.02 | 66 | 984.3 |
| 20260509121543 | 70 | 250 | 3.0 | 5.0 | 0.01 | 0.02 | 0.02 | 66 | 984.6 |
| 20260509120014 | 70 | 259 | 1.0 | 6.0 | 0.02 | 0.02 | 0.02 | 66 | 984.9 |
| 20260509114527 | 71 | 224 | 0.0 | 0.0 | 0.02 | 0.02 | 0.02 | 66 | 985.3 |
| 20260509113056 | 71 | 221 | 0.0 | 0.0 | 0.02 | 0.02 | 0.02 | 66 | 985.8 |
| 20260509111605 | 71 | 221 | 0.0 | 0.0 | 0.01 | 0.01 | 0.01 | 66 | 986.1 |
| 20260509110036 | 71 | 27 | 0.0 | 2.0 | 0.00 | 0.00 | 0.00 | 66 | 986.3 |